TimeCST,TemperatureF,Dew PointF,Humidity,Sea Level PressureIn,VisibilityMPH,Wind Direction,Wind SpeedMPH,Gust SpeedMPH,PrecipitationIn,Events,Conditions,WindDirDegrees,DateUTC
12:15 AM,35.8,27.5,72,30.16,10.0,NNW,13.8,-,N/A,,Mostly Cloudy,330,2013-02-03 06:15:00
12:35 AM,34.7,26.6,72,30.17,10.0,NNW,12.7,-,N/A,,Scattered Clouds,330,2013-02-03 06:35:00
12:55 AM,33.8,26.2,74,30.17,10.0,NW,15.0,-,N/A,,Scattered Clouds,320,2013-02-03 06:55:00
1:15 AM,33.8,25.7,72,30.17,10.0,NW,16.1,21.9,N/A,,Clear,320,2013-02-03 07:15:00
1:35 AM,32.4,25.7,76,30.19,10.0,NW,19.6,24.2,N/A,,Clear,320,2013-02-03 07:35:00
1:55 AM,32.9,25.0,73,30.19,10.0,NNW,18.4,27.6,N/A,,Clear,330,2013-02-03 07:55:00
2:15 AM,32.0,24.3,73,30.19,10.0,NNW,17.3,25.3,N/A,,Clear,330,2013-02-03 08:15:00
2:35 AM,31.6,23.9,73,30.20,10.0,NW,13.8,-,N/A,,Clear,320,2013-02-03 08:35:00
2:55 AM,30.2,23.7,77,30.20,10.0,NW,8.1,-,N/A,,Clear,310,2013-02-03 08:55:00
3:15 AM,29.8,23.5,77,30.20,10.0,NW,8.1,-,N/A,,Clear,320,2013-02-03 09:15:00
3:55 AM,28.9,22.1,76,30.21,10.0,WNW,9.2,-,N/A,,Clear,300,2013-02-03 09:55:00
4:15 AM,28.2,21.6,76,30.20,10.0,NW,11.5,-,N/A,,Clear,310,2013-02-03 10:15:00
4:35 AM,28.4,19.2,69,30.21,10.0,NW,12.7,-,N/A,,Clear,310,2013-02-03 10:35:00
4:55 AM,28.0,18.5,67,30.21,10.0,NW,12.7,-,N/A,,Clear,310,2013-02-03 10:55:00
5:15 AM,27.3,18.3,69,30.20,10.0,NNW,6.9,-,N/A,,Clear,330,2013-02-03 11:15:00
5:35 AM,25.3,18.0,74,30.19,10.0,NNW,8.1,-,N/A,,Clear,340,2013-02-03 11:35:00
6:15 AM,23.2,16.5,76,30.20,10.0,NW,6.9,-,N/A,,Clear,320,2013-02-03 12:15:00
6:35 AM,21.2,16.7,83,30.20,10.0,West,3.5,-,N/A,,Clear,260,2013-02-03 12:35:00
6:55 AM,23.4,18.3,81,30.20,10.0,SW,3.5,-,N/A,,Clear,230,2013-02-03 12:55:00
7:15 AM,22.8,18.1,82,30.20,10.0,West,3.5,-,N/A,,Clear,260,2013-02-03 13:15:00
7:35 AM,21.6,17.4,84,30.21,10.0,WSW,4.6,-,N/A,,Clear,250,2013-02-03 13:35:00
7:55 AM,21.4,18.0,87,30.21,10.0,WSW,3.5,-,N/A,,Clear,240,2013-02-03 13:55:00
8:15 AM,23.7,19.6,84,30.20,10.0,SW,6.9,-,N/A,,Clear,230,2013-02-03 14:15:00
8:35 AM,26.2,21.2,81,30.20,10.0,WSW,4.6,-,N/A,,Clear,240,2013-02-03 14:35:00
8:55 AM,27.9,22.5,80,30.19,10.0,SW,6.9,-,N/A,,Clear,230,2013-02-03 14:55:00
9:15 AM,29.3,23.4,78,30.18,10.0,SW,4.6,-,N/A,,Scattered Clouds,220,2013-02-03 15:15:00
9:35 AM,31.1,24.3,76,30.16,10.0,SW,6.9,-,N/A,,Clear,230,2013-02-03 15:35:00
9:55 AM,32.0,24.8,75,30.15,10.0,SSW,5.8,-,N/A,,Clear,210,2013-02-03 15:55:00
10:15 AM,33.3,25.5,73,30.14,10.0,SW,6.9,-,N/A,,Clear,220,2013-02-03 16:15:00
10:35 AM,34.3,25.9,71,30.13,10.0,SSW,6.9,-,N/A,,Clear,210,2013-02-03 16:35:00
10:55 AM,35.6,25.3,66,30.12,10.0,South,10.4,-,N/A,,Clear,190,2013-02-03 16:55:00
11:15 AM,37.0,25.2,62,30.11,10.0,South,10.4,-,N/A,,Clear,190,2013-02-03 17:15:00
11:35 AM,38.3,21.9,52,30.10,10.0,SSW,15.0,-,N/A,,Clear,210,2013-02-03 17:35:00
11:55 AM,39.2,25.5,58,30.09,10.0,SSW,11.5,-,N/A,,Clear,200,2013-02-03 17:55:00
12:15 PM,39.7,23.7,53,30.07,10.0,South,12.7,-,N/A,,Clear,190,2013-02-03 18:15:00
12:35 PM,41.0,25.0,53,30.06,10.0,SSW,13.8,-,N/A,,Clear,200,2013-02-03 18:35:00
12:55 PM,41.2,24.8,52,30.04,10.0,SSW,16.1,-,N/A,,Clear,210,2013-02-03 18:55:00
1:15 PM,41.4,25.0,52,30.03,10.0,SSW,16.1,21.9,N/A,,Clear,200,2013-02-03 19:15:00
1:35 PM,41.9,26.1,53,30.02,10.0,SSW,16.1,24.2,N/A,,Clear,200,2013-02-03 19:35:00
1:55 PM,42.3,26.6,54,30.00,10.0,SSW,13.8,23.0,N/A,,Clear,200,2013-02-03 19:55:00
2:15 PM,42.8,27.1,54,29.99,10.0,SSW,12.7,23.0,N/A,,Clear,210,2013-02-03 20:15:00
2:35 PM,43.5,28.2,55,29.97,10.0,SSW,16.1,19.6,N/A,,Clear,210,2013-02-03 20:35:00
2:55 PM,43.7,29.3,57,29.96,10.0,SSW,13.8,21.9,N/A,,Clear,210,2013-02-03 20:55:00
3:15 PM,44.6,30.4,57,29.95,10.0,SSW,19.6,24.2,N/A,,Clear,210,2013-02-03 21:15:00
3:35 PM,44.6,31.1,59,29.94,10.0,SSW,17.3,21.9,N/A,,Clear,210,2013-02-03 21:35:00
3:55 PM,44.2,31.5,61,29.93,10.0,SSW,13.8,-,N/A,,Clear,200,2013-02-03 21:55:00
4:15 PM,44.1,32.0,63,29.91,10.0,SSW,13.8,-,N/A,,Clear,200,2013-02-03 22:15:00
4:35 PM,43.5,32.0,64,29.91,10.0,SSW,10.4,-,N/A,,Clear,200,2013-02-03 22:35:00
4:55 PM,43.0,31.3,63,29.89,10.0,SSW,9.2,-,N/A,,Clear,200,2013-02-03 22:55:00
5:15 PM,41.9,31.5,66,29.88,10.0,SSW,11.5,-,N/A,,Clear,200,2013-02-03 23:15:00
5:35 PM,40.3,31.5,71,29.88,10.0,SSW,10.4,-,N/A,,Clear,200,2013-02-03 23:35:00
5:55 PM,39.7,31.1,71,29.87,10.0,SSW,10.4,-,N/A,,Clear,210,2013-02-03 23:55:00
6:15 PM,39.2,31.1,73,29.87,10.0,SSW,10.4,-,N/A,,Clear,200,2013-02-04 00:15:00
6:35 PM,39.4,30.9,72,29.87,10.0,SW,9.2,-,N/A,,Clear,220,2013-02-04 00:35:00
6:55 PM,39.4,30.6,71,29.87,10.0,SW,9.2,-,N/A,,Clear,230,2013-02-04 00:55:00
7:15 PM,39.2,30.6,71,29.86,10.0,SW,9.2,-,N/A,,Clear,220,2013-02-04 01:15:00
7:55 PM,38.7,30.7,73,29.85,10.0,SSW,6.9,-,N/A,,Clear,200,2013-02-04 01:55:00
8:15 PM,35.4,30.4,82,29.84,10.0,South,8.1,-,N/A,,Clear,170,2013-02-04 02:15:00
8:35 PM,34.7,30.7,85,29.84,10.0,South,5.8,-,N/A,,Clear,190,2013-02-04 02:35:00
8:55 PM,36.9,30.9,79,29.83,10.0,SSW,8.1,-,N/A,,Clear,200,2013-02-04 02:55:00
9:15 PM,36.9,30.9,79,29.82,10.0,SSW,9.2,-,N/A,,Clear,210,2013-02-04 03:15:00
9:35 PM,38.1,30.9,75,29.81,10.0,SW,11.5,-,N/A,,Clear,220,2013-02-04 03:35:00
9:55 PM,37.8,31.1,77,29.81,10.0,SW,10.4,-,N/A,,Clear,220,2013-02-04 03:55:00
10:15 PM,38.3,31.1,75,29.80,10.0,SW,9.2,-,N/A,,Clear,220,2013-02-04 04:15:00
10:35 PM,39.0,30.9,73,29.79,10.0,SW,10.4,-,N/A,,Clear,230,2013-02-04 04:35:00
10:55 PM,39.0,30.9,73,29.79,10.0,WSW,11.5,-,N/A,,Clear,240,2013-02-04 04:55:00
11:15 PM,38.3,30.7,74,29.78,10.0,SW,9.2,-,N/A,,Clear,230,2013-02-04 05:15:00
11:35 PM,40.1,30.7,69,29.77,10.0,WSW,12.7,-,N/A,,Clear,240,2013-02-04 05:35:00
11:55 PM,39.7,30.6,70,29.77,10.0,WSW,9.2,-,N/A,,Clear,240,2013-02-04 05:55:00